Voltar ao catálogo

COSMOS 970 DEB

AtivoLEO
NORAD 64966·DEBRIS·🇷🇺 Russia

Lançado Dec 21, 1977 de Baikonur Cosmodrome

Loading…

Próximas Passagens (próximas 24 horas)

TLE

ObsoletoSource: Space-Track

Época: Sep 6, 2026, 09:49 UTC

1 64966U 77121CB  26249.40935563  .00000214  00000-0  28095-3 0  9991
2 64966  65.8131 290.7337 0102605 150.5271 210.1633 13.78373712642755

Acompanhe COSMOS 970 DEB em tempo real com AllMySat

Download on the App Store